GW5611 Weather Reports


time (UTC)temp
C
wind
direction
speed
KPH
gust
KPH
rain 1hr
cm
rain 24hr
cm
rain mn
cm
humidity
%
barometer
mb
20260504024009 10 226 0.0 0.0 0.00 0.00 0.00 45 1016.5
20260504023505 10 222 3.2 4.8 0.00 0.00 0.00 44 1016.1
20260504023001 10 221 0.0 1.6 0.00 0.00 0.00 44 1016.1
20260504022457 10 218 0.0 0.0 0.00 0.00 0.00 44 1016.5
20260504021954 10 218 1.6 1.6 0.00 0.00 0.00 46 1016.5
20260504021452 9 222 0.0 0.0 0.00 0.00 0.00 50 1016.1
20260504020948 9 221 0.0 0.0 0.00 0.00 0.00 51 1016.5
20260504020445 9 221 0.0 0.0 0.00 0.00 0.00 53 1016.1
20260504015942 10 219 0.0 0.0 0.00 0.00 0.00 51 1016.1
20260504015438 10 222 3.2 3.2 0.00 0.00 0.00 50 1016.5
20260504014934 10 198 1.6 3.2 0.00 0.00 0.00 44 1015.8
20260504014430 10 211 0.0 1.6 0.00 0.00 0.00 44 1015.8
20260504013927 10 217 3.2 4.8 0.00 0.00 0.00 44 1015.8
20260504013426 10 219 0.0 0.0 0.00 0.00 0.00 45 1015.8
20260504012926 10 222 0.0 0.0 0.00 0.00 0.00 43 1016.1
20260504012425 10 200 3.2 3.2 0.00 0.00 0.00 41 1015.8
20260504011922 10 226 1.6 1.6 0.00 0.00 0.00 40 1015.8
20260504011419 10 218 3.2 4.8 0.00 0.00 0.00 42 1015.8
20260504010914 10 222 1.6 1.6 0.00 0.00 0.00 42 1015.4
20260504010411 10 215 4.8 4.8 0.00 0.00 0.00 42 1015.8
20260504005907 10 226 0.0 0.0 0.00 0.00 0.00 42 1015.4
20260504005403 9 258 1.6 3.2 0.00 0.00 0.00 43 1015.4
20260504004901 9 222 0.0 0.0 0.00 0.00 0.00 44 1015.8
20260504004359 9 228 0.0 0.0 0.00 0.00 0.00 44 1015.8
20260504003855 9 213 1.6 1.6 0.00 0.00 0.00 45 1015.4
20260504003352 9 224 0.0 0.0 0.00 0.00 0.00 45 1015.8
20260504002849 10 228 0.0 0.0 0.00 0.00 0.00 44 1015.4
20260504002345 10 224 0.0 0.0 0.00 0.00 0.00 44 1015.4
20260504001843 10 222 0.0 0.0 0.00 0.00 0.00 41 1015.4
20260504001340 11 222 0.0 0.0 0.00 0.00 0.00 41 1015.4
20260504000837 11 221 0.0 0.0 0.00 0.00 0.00 41 1015.4
20260504000334 11 220 0.0 0.0 0.00 0.00 0.00 40 1015.4
20260503235832 11 228 0.0 0.0 0.00 0.00 0.00 39 1015.4
20260503235329 12 223 0.0 0.0 0.00 0.00 0.00 38 1015.4
20260503234826 12 224 0.0 0.0 0.00 0.00 0.00 36 1015.1
20260503234324 13 221 0.0 0.0 0.00 0.00 0.00 35 1015.4
20260503233822 13 213 0.0 0.0 0.00 0.00 0.00 33 1015.1
20260503233317 14 218 4.8 4.8 0.00 0.00 0.00 30 1015.1
20260503232814 15 209 1.6 3.2 0.00 0.00 0.00 31 1015.1
20260503232311 15 211 3.2 3.2 0.00 0.00 0.00 30 1015.1
20260503231809 15 219 3.2 8.0 0.00 0.00 0.00 31 1015.4
20260503231306 15 197 3.2 4.8 0.00 0.00 0.00 30 1015.1
20260503230802 15 196 1.6 1.6 0.00 0.00 0.00 32 1015.1
20260503230259 15 213 1.6 3.2 0.00 0.00 0.00 29 1014.7
20260503225757 16 224 1.6 1.6 0.00 0.00 0.00 30 1015.1
20260503225252 16 212 8.0 11.3 0.00 0.00 0.00 30 1015.1
20260503224749 16 223 3.2 3.2 0.00 0.00 0.00 30 1015.1
20260503224247 16 204 4.8 4.8 0.00 0.00 0.00 29 1015.1
20260503223744 16 221 0.0 1.6 0.00 0.00 0.00 29 1014.7
20260503223241 16 250 4.8 8.0 0.00 0.00 0.00 28 1015.1
20260503222737 16 199 4.8 4.8 0.00 0.00 0.00 28 1015.1
20260503222235 16 209 6.4 9.7 0.00 0.00 0.00 31 1015.1
20260503221734 16 194 6.4 8.0 0.00 0.00 0.00 27 1015.1
20260503221231 16 184 6.4 9.7 0.00 0.00 0.00 27 1015.1
20260503220727 16 212 4.8 8.0 0.00 0.00 0.00 27 1015.1
20260503220224 16 199 6.4 8.0 0.00 0.00 0.00 28 1015.1
20260503215721 16 219 3.2 3.2 0.00 0.00 0.00 27 1015.4
20260503215218 16 193 4.8 4.8 0.00 0.00 0.00 26 1015.1
20260503214716 16 228 4.8 8.0 0.00 0.00 0.00 28 1015.1
20260503214212 16 225 6.4 9.7 0.00 0.00 0.00 27 1015.4
20260503213711 15 247 3.2 3.2 0.00 0.00 0.00 26 1015.1
20260503213208 16 264 8.0 11.3 0.00 0.00 0.00 25 1015.1
20260503212705 16 272 9.7 11.3 0.00 0.00 0.00 26 1015.1
20260503212202 16 209 3.2 9.7 0.00 0.00 0.00 27 1015.1
20260503211700 16 229 8.0 11.3 0.00 0.00 0.00 27 1015.4
20260503211155 16 193 8.0 11.3 0.00 0.00 0.00 29 1015.1
20260503210652 16 201 6.4 9.7 0.00 0.00 0.00 26 1015.1
20260503210148 16 228 4.8 8.0 0.00 0.00 0.00 28 1015.1
20260503205644 16 256 4.8 9.7 0.00 0.00 0.00 27 1015.4
20260503205140 16 227 1.6 3.2 0.00 0.00 0.00 29 1015.4
20260503204637 16 276 6.4 8.0 0.00 0.00 0.00 28 1015.1
20260503204135 16 203 1.6 3.2 0.00 0.00 0.00 29 1015.4
20260503203631 16 265 4.8 8.0 0.00 0.00 0.00 31 1015.4
20260503203129 16 195 4.8 9.7 0.00 0.00 0.00 30 1015.4
20260503202626 16 232 3.2 4.8 0.00 0.00 0.00 31 1015.8
20260503202124 16 254 4.8 4.8 0.00 0.00 0.00 30 1015.8
20260503201622 15 214 4.8 9.7 0.00 0.00 0.00 28 1015.8
20260503201119 15 215 8.0 9.7 0.00 0.00 0.00 28 1015.8
20260503200615 15 233 6.4 9.7 0.00 0.00 0.00 27 1015.8
20260503200112 16 253 4.8 4.8 0.00 0.00 0.00 27 1016.1
20260503195609 15 231 4.8 9.7 0.00 0.00 0.00 30 1015.8
20260503195106 15 159 11.3 12.9 0.00 0.00 0.00 31 1016.1
20260503194604 15 200 3.2 4.8 0.00 0.00 0.00 31 1016.1
20260503194103 16 218 11.3 16.1 0.00 0.00 0.00 29 1016.1
20260503193600 15 206 4.8 4.8 0.00 0.00 0.00 29 1016.1
20260503193055 15 192 3.2 4.8 0.00 0.00 0.00 33 1016.1
20260503192552 15 221 3.2 4.8 0.00 0.00 0.00 31 1016.1
20260503192048 15 194 6.4 9.7 0.00 0.00 0.00 34 1016.1
20260503191545 15 237 6.4 8.0 0.00 0.00 0.00 31 1016.5
20260503191042 15 184 4.8 4.8 0.00 0.00 0.00 33 1016.1
20260503190539 14 210 1.6 3.2 0.00 0.00 0.00 31 1016.5
20260503190036 15 234 6.4 8.0 0.00 0.00 0.00 31 1016.5
20260503185533 15 192 4.8 8.0 0.00 0.00 0.00 32 1016.9
20260503185032 15 278 9.7 11.3 0.00 0.00 0.00 33 1016.5
20260503184528 14 226 3.2 3.2 0.00 0.00 0.00 35 1016.5
20260503184025 14 233 3.2 3.2 0.00 0.00 0.00 39 1016.9
20260503183522 13 220 1.6 1.6 0.00 0.00 0.00 34 1016.9
20260503183019 13 227 6.4 9.7 0.00 0.00 0.00 32 1017.2
20260503182518 13 197 11.3 14.5 0.00 0.00 0.00 35 1016.9
20260503182015 13 249 8.0 12.9 0.00 0.00 0.00 34 1017.2
20260503181512 13 221 4.8 4.8 0.00 0.00 0.00 39 1016.9
20260503181008 13 248 8.0 9.7 0.00 0.00 0.00 32 1017.2
20260503180506 14 211 3.2 3.2 0.00 0.00 0.00 36 1017.2
20260503180002 13 213 3.2 3.2 0.00 0.00 0.00 35 1017.2
20260503175500 13 220 9.7 11.3 0.00 0.00 0.00 35 1017.2
20260503174956 13 232 9.7 14.5 0.00 0.00 0.00 34 1017.6
20260503174454 12 259 4.8 4.8 0.00 0.00 0.00 37 1017.2
20260503173949 13 226 4.8 9.7 0.00 0.00 0.00 35 1017.2
20260503173445 13 218 4.8 4.8 0.00 0.00 0.00 37 1017.2
20260503172942 12 219 1.6 1.6 0.00 0.00 0.00 38 1017.2
20260503172440 12 173 6.4 8.0 0.00 0.00 0.00 40 1017.2
20260503171936 13 227 6.4 9.7 0.00 0.00 0.00 40 1017.2
20260503171433 12 280 6.4 8.0 0.00 0.00 0.00 36 1017.2
20260503170931 12 153 8.0 9.7 0.00 0.00 0.00 40 1017.2
20260503170426 12 223 1.6 3.2 0.00 0.00 0.00 39 1017.6
20260503150819 9 192 8.0 11.3 0.00 0.00 0.00 47 1019.0
20260503150315 10 207 6.4 8.0 0.00 0.00 0.00 43 1019.0
20260503140239 8 240 0.0 1.6 0.00 0.00 0.00 51 1019.0
20260503131209 7 222 3.2 3.2 0.00 0.00 0.00 52 1019.0
20260503130706 7 316 3.2 4.8 0.00 0.00 0.00 52 1018.3
20260503130204 6 286 4.8 4.8 0.00 0.00 0.00 52 1018.3
20260503120129 3 239 1.6 3.2 0.00 0.00 0.00 59 1018.6
20260503110556 2 200 1.6 1.6 0.00 0.00 0.00 63 1017.9
20260503090444 3 196 1.6 1.6 0.00 0.00 0.00 60 1016.5
20260503081410 4 218 3.2 4.8 0.00 0.00 0.00 54 1015.8
20260503080907 4 252 0.0 1.6 0.00 0.00 0.00 54 1015.4
20260503080404 4 229 4.8 8.0 0.00 0.00 0.00 55 1015.8
20260503072840 4 258 3.2 3.2 0.00 0.00 0.00 58 1015.1
20260503072337 4 214 0.0 0.0 0.00 0.00 0.00 57 1015.4
20260503071833 4 187 6.4 11.3 0.00 0.00 0.00 58 1015.1
20260503071331 5 225 0.0 1.6 0.00 0.00 0.00 57 1015.4
20260503070827 4 311 3.2 8.0 0.00 0.00 0.00 60 1015.1
20260503070325 3 241 3.2 3.2 0.00 0.00 0.00 63 1015.4
20260503060255 3 223 0.0 0.0 0.00 0.00 0.00 65 1015.1
20260503054743 2 235 1.6 1.6 0.00 0.00 0.00 69 1015.1
20260503054240 2 224 0.0 0.0 0.00 0.00 0.00 71 1015.4
20260503053738 1 227 0.0 0.0 0.00 0.00 0.00 73 1015.1
20260503053236 1 233 0.0 0.0 0.00 0.00 0.00 75 1015.1
20260503052732 1 233 0.0 1.6 0.00 0.00 0.00 75 1015.4
20260503052229 1 232 0.0 1.6 0.00 0.00 0.00 75 1015.1
20260503051724 1 215 0.0 1.6 0.00 0.00 0.00 76 1015.1
20260503051222 1 222 0.0 0.0 0.00 0.00 0.00 76 1015.1
20260503050718 1 224 0.0 0.0 0.00 0.00 0.00 76 1015.1
20260503050215 1 244 1.6 1.6 0.00 0.00 0.00 74 1015.1
20260503045712 1 222 0.0 0.0 0.00 0.00 0.00 75 1014.7
20260503045210 0 227 0.0 0.0 0.00 0.00 0.00 78 1014.7
20260503044706 0 228 0.0 1.6 0.00 0.00 0.00 78 1015.1
20260503044204 0 232 0.0 1.6 0.00 0.00 0.00 78 1015.1
20260503043700 1 225 0.0 0.0 0.00 0.00 0.00 77 1015.1
20260503043158 1 220 0.0 0.0 0.00 0.00 0.00 77 1015.1
20260503042653 1 227 0.0 0.0 0.00 0.00 0.00 76 1015.1
20260503042150 1 233 0.0 1.6 0.00 0.00 0.00 76 1015.1
20260503041646 1 226 0.0 0.0 0.00 0.00 0.00 74 1015.1
20260503041144 1 224 0.0 0.0 0.00 0.00 0.00 73 1015.1
20260503040641 2 218 1.6 1.6 0.00 0.00 0.00 74 1015.1
20260503040139 2 227 0.0 1.6 0.00 0.00 0.00 70 1015.1
20260503035635 3 227 0.0 0.0 0.00 0.00 0.00 68 1014.7
20260503035133 3 223 0.0 0.0 0.00 0.00 0.00 66 1015.1
20260503034630 3 215 0.0 1.6 0.00 0.00 0.00 65 1014.7
20260503034127 3 219 0.0 0.0 0.00 0.00 0.00 61 1015.1
20260503033624 4 234 0.0 1.6 0.00 0.00 0.00 65 1015.1
20260503033122 4 224 0.0 0.0 0.00 0.00 0.00 62 1014.7
20260503032620 5 223 0.0 0.0 0.00 0.00 0.00 57 1014.7
20260503032118 5 215 0.0 0.0 0.00 0.00 0.00 58 1014.7
20260503031616 5 221 0.0 0.0 0.00 0.00 0.00 57 1014.3
20260503031113 5 221 0.0 0.0 0.00 0.00 0.00 55 1015.1
20260503030609 5 222 0.0 0.0 0.00 0.00 0.00 56 1014.7
20260503030106 5 229 0.0 0.0 0.00 0.00 0.00 55 1014.7
20260503025603 6 232 0.0 0.0 0.00 0.00 0.00 52 1014.7
20260503025100 6 225 0.0 0.0 0.00 0.00 0.00 51 1014.7
20260503024556 6 215 1.6 1.6 0.00 0.00 0.00 51 1014.7